User: anonymous   Login
Location: �clusier
(49.9361°N, 2.7869°E)
Time: 15:49:38
(UTC+00:00)
Language:

Cosmos 1025 Rocket - Orbit

View from above orbital plane
View from above orbital plane
View from above satellite
View from above satellite

Ground track
Ground track

The orbit data is extracted from the following two-line orbital elements,

1 10974U 78067B   21258.76103608  .00000092  00000-0  75050-5 0  9991
2 10974  82.4826 139.5623 0016019 238.8686 121.0961 14.87414587317055
Epoch (UTC): 15 September 2021 18:15:53
Eccentricity: 0.0016019
inclination: 82.4826°
perigee height: 595 km
apogee height: 617 km
right ascension of ascending node: 139.5623°
argument of perigee: 238.8686°
revolutions per day: 14.87414587
mean anomaly at epoch: 121.0961°
orbit number at epoch: 31705

The dashed part of the orbit path shows where the satellite is in the earth's shadow,  

DLR